Weather History for KCOF - September, 2012

Change the Weather History Date:

Monday, September 24, 2012

  Actual Average Record
Temperature  
Mean Temperature 80 °F -  
Max Temperature 84 °F 83 °F 89 °F (2011)
Min Temperature 77 °F 74 °F 73 °F (2001)
Cooling Degree Days 15    
Growing Degree Days 30 (Base 50)    
Moisture  
Dew Point 67 °F    
Average Humidity 67    
Maximum Humidity 89    
Minimum Humidity 49    
Precipitation  
Precipitation 0.00 in - - ()
Sea Level Pressure  
Sea Level Pressure 30.06 in    
Wind  
Wind Speed 9 mph (North)    
Max Wind Speed 16 mph    
Max Gust Speed -    
Visibility 10 miles    
Events      
Averages and records for this station are not official NWS values.
T = Trace of Precipitation, MM = Missing Value Source: NWS Daily Summary

Daily Weather History Graph

Daily Weather History Graph

Search for Another Location

Airport or City:

Trip Planner

Search our weather history database for the weather conditions in past years. The results will help you decide how hot, cold, wet, or windy it might be!

Date:

Astronomy

Sep. 24, 2012 Rise Set
Actual Time 7:12 AM EDT 7:15 PM EDT
Civil Twilight 6:48 AM EDT 7:39 PM EDT
Nautical Twilight 6:21 AM EDT 8:06 PM EDT
Astronomical Twilight 5:53 AM EDT 8:34 PM EDT
Moon 3:38 PM EDT (9/24) 1:51 AM EDT (9/24)
Length of Visible Light 12h 50m
Length of Day
12h 03m
Waxing Gibbous, 70% of the Moon is Illuminated
Sep 24
Waxing Gibbous
Sep 29
Full
Oct 8
Last Quarter
Oct 15
New
Oct 21
First Quarter

Hourly Weather History & Observations

Time (EDT) Temp. Heat Index Dew Point Humidity Pressure Visibility Wind Dir Wind Speed Gust Speed Precip Events Conditions
12:55 AM 79.7 °F - 71.4 °F 76% 30.06 in 10.0 mi North 3.5 mph - N/A   Clear
1:55 AM 79.2 °F - 72.9 °F 81% 30.05 in 10.0 mi North 10.4 mph - N/A   Clear
2:55 AM 78.8 °F - 72.9 °F 82% 30.04 in 10.0 mi North 8.1 mph - N/A   Clear
3:55 AM 77.4 °F - 73.9 °F 89% 30.03 in 10.0 mi WNW 5.8 mph - N/A   Partly Cloudy
4:55 AM 77.9 °F - 70.9 °F 79% 30.03 in 10.0 mi NNW 6.9 mph - N/A   Partly Cloudy
5:55 AM 77.5 °F - 69.6 °F 76% 30.04 in 10.0 mi North 8.1 mph - N/A   Clear
6:55 AM 77.2 °F - 70.0 °F 78% 30.05 in 10.0 mi North 8.1 mph - N/A   Clear
7:55 AM 77.2 °F - 70.7 °F 80% 30.06 in 10.0 mi North 6.9 mph - N/A   Clear
8:55 AM 77.9 °F - 70.5 °F 78% 30.07 in 10.0 mi North 11.5 mph - N/A   Partly Cloudy
9:55 AM 79.0 °F - 70.0 °F 74% 30.08 in 10.0 mi North 11.5 mph - N/A   Partly Cloudy
10:55 AM 80.6 °F 83.6 °F 69.1 °F 68% 30.10 in 10.0 mi North 9.2 mph - N/A   Clear
11:55 AM 82.9 °F 85.8 °F 68.0 °F 60% 30.10 in 10.0 mi North 11.5 mph - N/A   Clear
12:55 PM 83.5 °F 84.7 °F 63.7 °F 51% 30.09 in 10.0 mi North 10.4 mph - N/A   Clear
1:55 PM 83.1 °F 83.9 °F 61.9 °F 49% 30.08 in 10.0 mi North 10.4 mph - N/A   Clear
2:55 PM 83.8 °F 85.1 °F 63.9 °F 51% 30.06 in 10.0 mi North 11.5 mph - N/A   Clear
3:55 PM 82.6 °F 84.9 °F 66.6 °F 58% 30.04 in 10.0 mi NNE 15.0 mph - N/A   Clear
4:55 PM 81.5 °F 83.7 °F 66.4 °F 60% 30.03 in 10.0 mi NNE 16.1 mph - N/A   Clear
5:55 PM 80.8 °F 82.5 °F 64.9 °F 58% 30.04 in 10.0 mi North 15.0 mph - N/A   Clear
6:55 PM 79.5 °F - 64.6 °F 60% 30.05 in 10.0 mi North 11.5 mph - N/A   Clear
7:55 PM 79.0 °F - 63.3 °F 59% 30.05 in 10.0 mi North 13.8 mph - N/A   Clear
8:55 PM 78.8 °F - 63.3 °F 59% 30.05 in 10.0 mi NNE 11.5 mph - N/A   Clear
9:55 PM 78.1 °F - 62.2 °F 58% 30.06 in 10.0 mi North 10.4 mph - N/A   Clear
10:55 PM 77.5 °F - 62.2 °F 59% 30.07 in 10.0 mi North 8.1 mph - N/A   Clear
11:55 PM 77.5 °F - 63.0 °F 61% 30.07 in 10.0 mi North 5.8 mph - N/A   Clear